Weather History for KCLI - November, 2012

Change the Weather History Date:

Sunday, November 11, 2012

  Actual Average Record
Temperature  
Mean Temperature 46 °F -  
Max Temperature 60 °F 43 °F 71 °F (1964)
Min Temperature 33 °F 26 °F 6 °F (1979)
Degree Days  
Heating Degree Days 18    
Moisture  
Dew Point 49 °F    
Average Humidity 87    
Maximum Humidity 100    
Minimum Humidity 68    
Precipitation  
Precipitation 0.74 in - - ()
Sea Level Pressure  
Sea Level Pressure 29.71 in    
Wind  
Wind Speed 11 mph (SSW)    
Max Wind Speed 17 mph    
Max Gust Speed 25 mph    
Visibility 9 miles    
Events Rain    
Averages and records for this station are not official NWS values.
T = Trace of Precipitation, MM = Missing Value Source: NWS Daily Summary

Daily Weather History Graph

Daily Weather History Graph

Search for Another Location

Airport or City:

Trip Planner

Search our weather history database for the weather conditions in past years. The results will help you decide how hot, cold, wet, or windy it might be!

Date:

Astronomy

Nov. 11, 2012 Rise Set
Actual Time 6:46 AM CST 4:30 PM CST
Civil Twilight 6:15 AM CST 5:01 PM CST
Nautical Twilight 5:40 AM CST 5:36 PM CST
Astronomical Twilight 5:06 AM CST 6:11 PM CST
Moon 3:55 AM CST (11/11) 2:58 PM CST (11/11)
Length of Visible Light 10h 46m
Length of Day
9h 43m
Waning Crescent, 7% of the Moon is Illuminated
Nov 11
Waning Crescent
Nov 13
New
Nov 20
First Quarter
Nov 28
Full
Dec 6
Last Quarter

Hourly Weather History & Observations

Time (CST) Temp. Windchill Dew Point Humidity Pressure Visibility Wind Dir Wind Speed Gust Speed Precip Events Conditions
12:15 AM 60.8 °F - 50.0 °F 68% 29.73 in 10.0 mi SSW 12.7 mph - N/A   Mostly Cloudy
12:35 AM 60.8 °F - 50.0 °F 68% 29.73 in 10.0 mi SSW 12.7 mph 18.4 mph N/A Rain Light Rain
12:55 AM 60.8 °F - 50.0 °F 68% 29.74 in 10.0 mi SSW 10.4 mph - N/A   Overcast
1:15 AM 60.8 °F - 50.0 °F 68% 29.74 in 10.0 mi SSW 10.4 mph - N/A Rain Light Rain
1:35 AM 59.0 °F - 51.8 °F 77% 29.73 in 10.0 mi South 8.1 mph - N/A   Light Drizzle
1:55 AM 59.0 °F - 50.0 °F 72% 29.75 in 10.0 mi South 9.2 mph - N/A   Scattered Clouds
2:15 AM 59.0 °F - 51.8 °F 77% 29.74 in 10.0 mi South 11.5 mph 17.3 mph 0.01 in Rain Light Rain
2:35 AM 57.2 °F - 53.6 °F 88% 29.76 in 10.0 mi South 13.8 mph 18.4 mph 0.02 in Rain Light Rain
2:55 AM 55.4 °F - 53.6 °F 94% 29.76 in 10.0 mi SSW 12.7 mph 21.9 mph 0.03 in   Drizzle
3:15 AM 55.4 °F - 53.6 °F 94% 29.75 in 10.0 mi SSW 10.4 mph 18.4 mph 0.01 in Rain Light Rain
3:35 AM 55.4 °F - 51.8 °F 88% 29.75 in 10.0 mi South 9.2 mph - 0.01 in   Scattered Clouds
3:55 AM 57.2 °F - 51.8 °F 82% 29.76 in 10.0 mi South 16.1 mph 20.7 mph 0.01 in   Mostly Cloudy
4:15 AM 59.0 °F - 51.8 °F 77% 29.76 in 10.0 mi SSW 15.0 mph 21.9 mph N/A   Scattered Clouds
4:35 AM 57.2 °F - 51.8 °F 82% 29.76 in 10.0 mi SSW 17.3 mph 21.9 mph N/A Rain Light Rain
4:55 AM 57.2 °F - 53.6 °F 88% 29.74 in 10.0 mi SSW 16.1 mph 25.3 mph N/A   Scattered Clouds
5:15 AM 57.2 °F - 53.6 °F 88% 29.74 in 10.0 mi South 11.5 mph - N/A   Clear
5:35 AM 55.4 °F - 51.8 °F 88% 29.73 in 10.0 mi South 5.8 mph - N/A   Clear
5:55 AM 55.4 °F - 51.8 °F 88% 29.74 in 10.0 mi South 8.1 mph - N/A   Clear
6:15 AM 57.2 °F - 51.8 °F 82% 29.73 in 10.0 mi South 12.7 mph 20.7 mph N/A   Clear
6:35 AM 57.2 °F - 51.8 °F 82% 29.74 in 10.0 mi South 12.7 mph - N/A   Clear
6:55 AM 57.2 °F - 51.8 °F 82% 29.73 in 10.0 mi South 10.4 mph - N/A   Clear
7:15 AM 57.2 °F - 51.8 °F 82% 29.71 in 10.0 mi South 10.4 mph - N/A   Scattered Clouds
7:35 AM 57.2 °F - 51.8 °F 82% 29.71 in 10.0 mi South 11.5 mph - N/A   Scattered Clouds
8:15 AM 59.0 °F - 51.8 °F 77% 29.71 in 10.0 mi South 15.0 mph 20.7 mph N/A   Clear
8:35 AM 59.0 °F - 51.8 °F 77% 29.72 in 10.0 mi South 12.7 mph 21.9 mph N/A   Clear
8:55 AM 59.0 °F - 51.8 °F 77% 29.71 in 10.0 mi South 17.3 mph 23.0 mph N/A   Clear
9:15 AM 59.0 °F - 51.8 °F 77% 29.73 in 10.0 mi South 13.8 mph 23.0 mph N/A   Clear
9:35 AM 59.0 °F - 51.8 °F 77% 29.72 in 10.0 mi South 16.1 mph 20.7 mph N/A   Mostly Cloudy
9:55 AM 60.8 °F - 51.8 °F 72% 29.72 in 10.0 mi South 12.7 mph 24.2 mph N/A   Overcast
10:15 AM 59.0 °F - 51.8 °F 77% 29.71 in 10.0 mi SSW 11.5 mph 21.9 mph N/A   Overcast
10:35 AM 59.0 °F - 51.8 °F 77% 29.70 in 10.0 mi South 10.4 mph - N/A   Overcast
10:55 AM 60.8 °F - 51.8 °F 72% 29.69 in 10.0 mi South 11.5 mph - N/A   Overcast
11:15 AM 60.8 °F - 51.8 °F 72% 29.68 in 10.0 mi South 11.5 mph - N/A   Overcast
11:35 AM 60.8 °F - 51.8 °F 72% 29.64 in 10.0 mi South 11.5 mph - N/A   Overcast
11:55 AM 60.8 °F - 51.8 °F 72% 29.66 in 10.0 mi South 13.8 mph 20.7 mph N/A   Overcast
12:15 PM 59.0 °F - 53.6 °F 82% 29.68 in 5.0 mi SW 17.3 mph 25.3 mph 0.07 in Rain Heavy Rain
12:35 PM 55.4 °F - 53.6 °F 94% 29.65 in 5.0 mi SSW 8.1 mph - 0.15 in Rain Light Rain
12:55 PM 55.4 °F - 55.4 °F 100% 29.65 in 7.0 mi SW 5.8 mph - 0.17 in Rain Rain
1:15 PM 57.2 °F - 55.4 °F 94% 29.63 in 10.0 mi South 4.6 mph - N/A   Light Drizzle
1:35 PM 57.2 °F - 53.6 °F 88% 29.63 in 10.0 mi South 11.5 mph - 0.01 in   Overcast
1:55 PM 57.2 °F - 55.4 °F 94% 29.61 in 5.0 mi South 10.4 mph 17.3 mph 0.06 in Rain Rain
2:15 PM 55.4 °F - 55.4 °F 100% 29.60 in 10.0 mi South 8.1 mph - N/A Rain Light Rain
2:35 PM 55.4 °F - 55.4 °F 100% 29.61 in 5.0 mi South 8.1 mph - 0.03 in Rain Light Rain
2:55 PM 55.4 °F - 55.4 °F 100% 29.60 in 7.0 mi South 6.9 mph - 0.05 in Rain Rain
3:15 PM 55.4 °F - 55.4 °F 100% 29.63 in 3.0 mi WSW 12.7 mph - 0.09 in Rain Heavy Rain
3:35 PM 51.8 °F - 51.8 °F 100% 29.63 in 7.0 mi WNW 10.4 mph - 0.21 in Rain Light Rain
3:55 PM 51.8 °F - 51.8 °F 100% 29.63 in 10.0 mi West 5.8 mph - 0.21 in Rain Light Rain
4:15 PM 51.8 °F - 50.0 °F 94% 29.64 in 10.0 mi West 4.6 mph - N/A Rain Rain
4:35 PM 51.8 °F - 50.0 °F 94% 29.65 in 7.0 mi WSW 3.5 mph - 0.03 in Rain Rain
4:55 PM 51.8 °F - 50.0 °F 94% 29.65 in 10.0 mi Calm Calm - 0.06 in Rain Rain
5:15 PM 50.0 °F - 50.0 °F 100% 29.66 in 7.0 mi SW 3.5 mph - 0.02 in Rain Rain
5:35 PM 50.0 °F - 50.0 °F 100% 29.65 in 10.0 mi Calm Calm - 0.04 in Rain Rain
5:55 PM 50.0 °F - 50.0 °F 100% 29.67 in 10.0 mi SSW 5.8 mph - 0.06 in Rain Light Rain
6:15 PM 50.0 °F - 50.0 °F 100% 29.67 in 10.0 mi SSW 6.9 mph - 0.02 in Rain Rain
6:35 PM 50.0 °F - 48.2 °F 94% 29.69 in 10.0 mi SW 10.4 mph 16.1 mph 0.04 in Rain Rain
6:55 PM 48.2 °F - 46.4 °F 93% 29.69 in 7.0 mi WSW 12.7 mph 18.4 mph 0.05 in Rain Light Rain
7:15 PM 46.4 °F 41.5 °F 44.6 °F 93% 29.69 in 10.0 mi West 10.4 mph - 0.02 in Rain Light Rain
7:35 PM 42.8 °F 36.2 °F 42.8 °F 100% 29.70 in 10.0 mi West 12.7 mph 18.4 mph 0.03 in Rain Rain
7:55 PM 42.8 °F 36.6 °F 41.0 °F 93% 29.71 in 10.0 mi West 11.5 mph 20.7 mph 0.04 in Rain Light Rain
8:15 PM 41.0 °F 34.3 °F 39.2 °F 93% 29.73 in 10.0 mi West 11.5 mph 18.4 mph N/A   Light Drizzle
8:35 PM 39.2 °F 30.2 °F 37.4 °F 93% 29.74 in 10.0 mi West 17.3 mph 21.9 mph N/A   Overcast
9:15 PM 37.4 °F 28.5 °F 35.6 °F 93% 29.78 in 10.0 mi West 15.0 mph - N/A Rain Rain
9:35 PM 35.6 °F 27.5 °F 35.6 °F 100% 29.77 in 10.0 mi West 11.5 mph - N/A   Overcast
9:55 PM 35.6 °F 25.5 °F 33.8 °F 93% 29.81 in 10.0 mi WSW 17.3 mph 20.7 mph N/A   Overcast
10:15 PM 35.6 °F 26.2 °F 33.8 °F 93% 29.81 in 10.0 mi West 15.0 mph 21.9 mph N/A   Overcast
10:35 PM 33.8 °F 24.8 °F 32.0 °F 93% 29.81 in 10.0 mi West 12.7 mph 16.1 mph N/A   Overcast
10:55 PM 33.8 °F 25.3 °F 32.0 °F 93% 29.79 in 10.0 mi West 11.5 mph 23.0 mph N/A   Overcast
11:15 PM 33.8 °F 24.8 °F 32.0 °F 93% 29.82 in 10.0 mi West 12.7 mph 18.4 mph N/A   Overcast
11:35 PM 33.8 °F 24.8 °F 32.0 °F 93% 29.82 in 10.0 mi West 12.7 mph 19.6 mph N/A   Overcast
11:55 PM 33.8 °F 23.2 °F 32.0 °F 93% 29.84 in 10.0 mi West 17.3 mph 23.0 mph N/A   Overcast